| time (UTC) | temp C | wind direction | speed KPH | gust KPH | rain 1hr cm | rain 24hr cm | rain mn cm | humidity % | barometer mb |
| 20260504214607 | 23 | 179 | 17.7 | 54.7 | 0.00 | 0.03 | 0.03 | 48 | 1002.9 |
| 20260504213148 | 23 | 181 | 19.3 | 45.1 | 0.00 | 0.03 | 0.03 | 49 | 1002.8 |
| 20260504211607 | 23 | 194 | 27.4 | 45.1 | 0.00 | 0.03 | 0.03 | 48 | 1002.6 |
| 20260504210058 | 24 | 200 | 17.7 | 38.6 | 0.00 | 0.03 | 0.03 | 47 | 1002.8 |
| 20260504204558 | 24 | 188 | 27.4 | 53.1 | 0.00 | 0.03 | 0.03 | 47 | 1002.6 |
| 20260504203120 | 24 | 197 | 27.4 | 49.9 | 0.00 | 0.03 | 0.03 | 48 | 1002.9 |
| 20260504201559 | 24 | 248 | 24.1 | 51.5 | 0.00 | 0.03 | 0.03 | 48 | 1003.0 |
| 20260504194608 | 23 | 206 | 24.1 | 86.9 | 0.00 | 0.05 | 0.03 | 48 | 1003.7 |
| 20260504193111 | 23 | 193 | 22.5 | 40.2 | 0.00 | 0.05 | 0.03 | 50 | 1003.6 |
| 20260504191558 | 23 | 209 | 16.1 | 53.1 | 0.00 | 0.05 | 0.03 | 49 | 1003.6 |
| 20260504190117 | 23 | 194 | 24.1 | 46.7 | 0.00 | 0.05 | 0.03 | 50 | 1003.7 |
| 20260504184607 | 23 | 192 | 22.5 | 46.7 | 0.00 | 0.08 | 0.03 | 52 | 1003.8 |
| 20260504183101 | 23 | 208 | 20.9 | 40.2 | 0.03 | 0.08 | 0.03 | 55 | 1004.0 |
| 20260504181608 | 23 | 190 | 16.1 | 38.6 | 0.03 | 0.08 | 0.03 | 55 | 1003.9 |
| 20260504180103 | 22 | 179 | 19.3 | 35.4 | 0.03 | 0.08 | 0.03 | 56 | 1004.1 |
| 20260504174612 | 22 | 174 | 20.9 | 45.1 | 0.03 | 0.10 | 0.03 | 57 | 1004.4 |
| 20260504173120 | 22 | 220 | 17.7 | 38.6 | 0.00 | 0.08 | 0.00 | 56 | 1004.7 |
| 20260504171604 | 21 | 0 | 6.4 | 33.8 | 0.00 | 0.08 | 0.00 | 59 | 1005.1 |
| 20260504160109 | 20 | 0 | 0.0 | 0.0 | 0.00 | 0.15 | 0.00 | 62 | 1005.9 |
| 20260504150109 | 17 | 0 | 0.0 | 0.0 | 0.00 | 0.23 | 0.00 | 65 | 1006.3 |
| 20260504140112 | 15 | 201 | 8.0 | 22.5 | 0.00 | 0.33 | 0.00 | 71 | 1006.6 |
| 20260504110119 | 10 | 183 | 8.0 | 29.0 | 0.00 | 0.94 | 0.00 | 80 | 1007.2 |
| 20260504100105 | 9 | 180 | 6.4 | 16.1 | 0.00 | 0.97 | 0.00 | 81 | 1007.1 |
| 20260504090121 | 9 | 142 | 9.7 | 17.7 | 0.00 | 0.97 | 0.00 | 83 | 1007.0 |
| 20260504081558 | 8 | 165 | 6.4 | 14.5 | 0.00 | 0.97 | 0.00 | 85 | 1007.7 |
| 20260504044606 | 8 | 150 | 4.8 | 12.9 | 0.00 | 0.97 | 0.00 | 86 | 1009.6 |
| 20260504043101 | 8 | 155 | 6.4 | 14.5 | 0.00 | 0.97 | 0.00 | 86 | 1009.7 |
| 20260504041602 | 8 | 155 | 8.0 | 12.9 | 0.00 | 0.97 | 0.00 | 85 | 1009.8 |
| 20260504040107 | 8 | 150 | 4.8 | 11.3 | 0.00 | 0.97 | 0.00 | 85 | 1009.9 |
| 20260504034605 | 8 | 159 | 8.0 | 17.7 | 0.00 | 0.97 | 0.97 | 84 | 1010.1 |
| 20260504033116 | 8 | 144 | 8.0 | 19.3 | 0.00 | 0.97 | 0.97 | 84 | 1010.3 |
| 20260504031608 | 8 | 144 | 6.4 | 14.5 | 0.00 | 0.97 | 0.97 | 85 | 1010.3 |
| 20260504030059 | 8 | 135 | 6.4 | 12.9 | 0.00 | 0.97 | 0.97 | 85 | 1010.5 |
| 20260504024607 | 8 | 138 | 4.8 | 14.5 | 0.00 | 0.99 | 0.97 | 85 | 1010.5 |
| 20260504023059 | 8 | 157 | 9.7 | 19.3 | 0.00 | 0.99 | 0.97 | 85 | 1010.7 |
| 20260504021602 | 8 | 146 | 9.7 | 20.9 | 0.00 | 0.99 | 0.97 | 84 | 1010.8 |
| 20260504014558 | 9 | 151 | 11.3 | 25.7 | 0.00 | 0.99 | 0.97 | 85 | 1010.7 |
| 20260504013058 | 9 | 153 | 9.7 | 19.3 | 0.00 | 0.99 | 0.97 | 85 | 1010.8 |
| 20260504011558 | 9 | 146 | 11.3 | 22.5 | 0.00 | 0.99 | 0.97 | 85 | 1010.9 |
| 20260504010109 | 9 | 142 | 11.3 | 22.5 | 0.00 | 0.99 | 0.97 | 85 | 1010.9 |
| 20260504004603 | 9 | 150 | 12.9 | 20.9 | 0.00 | 0.99 | 0.97 | 85 | 1011.0 |
| 20260504003100 | 9 | 155 | 8.0 | 20.9 | 0.00 | 0.99 | 0.97 | 84 | 1011.2 |
| 20260504001614 | 9 | 144 | 11.3 | 19.3 | 0.00 | 0.99 | 0.97 | 84 | 1011.3 |
| 20260504000059 | 9 | 146 | 12.9 | 19.3 | 0.00 | 0.99 | 0.97 | 83 | 1011.3 |
| 20260503234601 | 9 | 145 | 14.5 | 32.2 | 0.00 | 1.02 | 0.97 | 83 | 1011.4 |
| 20260503233059 | 9 | 150 | 12.9 | 22.5 | 0.00 | 1.02 | 0.97 | 83 | 1011.5 |
| 20260503231558 | 9 | 132 | 11.3 | 22.5 | 0.00 | 1.02 | 0.97 | 82 | 1011.6 |
| 20260503230101 | 9 | 143 | 11.3 | 24.1 | 0.00 | 1.02 | 0.97 | 82 | 1011.8 |
| 20260503224557 | 9 | 136 | 9.7 | 17.7 | 0.00 | 1.02 | 0.97 | 83 | 1011.8 |
| 20260503223100 | 9 | 133 | 12.9 | 29.0 | 0.00 | 1.02 | 0.97 | 82 | 1012.0 |
| 20260503221601 | 9 | 135 | 9.7 | 17.7 | 0.00 | 1.02 | 0.97 | 83 | 1012.3 |
| 20260503220112 | 9 | 144 | 11.3 | 22.5 | 0.00 | 1.02 | 0.97 | 82 | 1012.3 |